Powrót do katalogu

STARLINK-4035

AktywnyŁącznośćVLEO
NORAD 52690·PAYLOAD·🇺🇸 United States

Wystrzelony May 18, 2022 z Cape Canaveral Space Force Station

Loading…

Następne Przeloty (najbliższe 24 godziny)

TLE

ŚwieżeSource: CelesTrak SupGP

Epoka: Sep 15, 2026, 01:42 UTC

1 52690C 22053AL  26258.07131944  .00003133  00000+0  11819-3 0  2586
2 52690  53.1608   9.0551 0001261  83.5742  89.9173 15.26504236    18

Śledź STARLINK-4035 w czasie rzeczywistym z AllMySat

Download on the App Store